Hourly Data Report for January 23, 2019

TORONTO CITY
ONTARIO
Current Station Operator: ECCC - MSC

43°40'00.000" N
79°24'00.000" W
112.50 m
6158355
71508
XTO

Download Data

Hourly Data (January 2019)
Hourly Data Report for January 23, 2019
TIME
LST
Temp Definition
°C
Dew Point Definition
°C
Rel Hum Definition
%
Precip. Amount Definition
mm

Wind Dir Definition
10's deg

Wind Spd Definition
km/h
Visibility Definition
km
Stn Press Definition
kPa
Hmdx Definition


Wind Chill Definition


Weather Definition


00:00 0.6 -6.2 61 0.0 LegendMM LegendMM   100.54     LegendNANA
01:00 1.0 -3.8 71 0.0 LegendMM LegendMM   100.44     LegendNANA
02:00 0.0 -2.3 85 0.0 LegendMM LegendMM   100.35     LegendNANA
03:00 0.1 -1.3 90 0.0 LegendMM LegendMM   100.29     LegendNANA
04:00 0.3 -1.0 91 0.5 LegendMM LegendMM   100.24     LegendNANA
05:00 0.4 -0.6 93 0.5 LegendMM LegendMM   100.18     LegendNANA
06:00 0.7 -0.2 93 0.3 LegendMM LegendMM   100.12     LegendNANA
07:00 0.8 -0.1 94 0.7 LegendMM LegendMM   100.00     LegendNANA
08:00 1.4 0.4 93 0.7 LegendMM LegendMM   99.90     LegendNANA
09:00 1.9 0.6 91 1.0 LegendMM LegendMM   99.82     LegendNANA
10:00 2.3 0.9 91 1.2 LegendMM LegendMM   99.75     LegendNANA
11:00 2.7 1.5 91 1.1 LegendMM LegendMM   99.67     LegendNANA
12:00 3.1 1.8 91 0.9 LegendMM LegendMM   99.51     LegendNANA
13:00 3.9 2.8 93 0.9 LegendMM LegendMM   99.27     LegendNANA
14:00 4.2 3.1 92 1.3 LegendMM LegendMM   99.11     LegendNANA
15:00 4.5 3.4 93 0.7 LegendMM LegendMM   99.03     LegendNANA
16:00 5.1 4.1 93 0.2 LegendMM LegendMM   98.92     LegendNANA
17:00 5.1 4.1 93 0.3 LegendMM LegendMM   98.86     LegendNANA
18:00 5.2 4.3 94 0.0 LegendMM LegendMM   98.82     LegendNANA
19:00 5.3 4.4 94 0.5 LegendMM LegendMM   98.79     LegendNANA
20:00 5.5 4.7 94 0.0 LegendMM LegendMM   98.85     LegendNANA
21:00 5.1 4.3 94 0.2 LegendMM LegendMM   98.80     LegendNANA
22:00 5.0 4.2 95 0.0 LegendMM LegendMM   98.78     LegendNANA
23:00 5.0 4.2 95 0.0 LegendMM LegendMM   98.76     LegendNANA

Notes on Data Quality.

Legend

  • E = Estimated
  • M = Missing
  • NA = Not Available*
  • [empty] = Indicates an unobserved value
Date modified: